Vertical_Velocity
-1 -1 -1 -1 -1 -1 -2 -3 -2 -1 -0 0 -1 -2 -2 -2 -2 -1 -1 -1 -1 0 0 1 1 1 2 3 -35 3 -2 5 4 -1 -2 -1 4 -0 -1 -1 7 6 -6 2 -1 0 -2
0 -1 -1 -1 -2 -1 -2 -1 -1 -1 -2 -2 -5 -3 -2 -1 -1 -2 -2 -1 -1 -0 3 2 3 4 2 3 3 -4 -2 1 5 4 -3 0 -10 -9 -2 -1 -0 -2 0 -6 -2 -7 3
-1 -2 -1 -1 1 0 -0 -1 -2 -2 -3 -2 -2 -1 -1 -2 -4 -2 -1 -0 0 -0 1 3 -0 6 3 -46 3 1 -1 -3 3 2 -1 -0 -1 12 -2 -0 -6 1 4 -1 0 -1 -2
-1 -1 -0 -0 -1 -2 -2 -2 -1 -3 -1 -2 -2 -3 -2 0 -0 -3 -1 -1 -2 -0 -2 2 1 3 -16 -1 2 0 -1 -3 -1 -1 1 5 7 4 14 1 -5 1 3 3 -4 1 -7
-2 -2 -0 -0 -1 -1 -0 -3 -4 -3 -3 -3 -2 -1 -3 -2 -4 -3 -4 -1 -1 -2 -5 -2 3 -1 -15 -1 -0 0 7 2 1 8 6 6 3 -2 3 0 -2 0 -1 1 -4 -1 -0
-1 -1 -3 -1 -0 -2 -2 -1 -0 -2 -2 -1 1 -1 -2 0 -5 -0 -3 -3 -2 3 -2 1 4 10 -1 0 3 -3 -1 4 5 4 6 8 4 1 3 0 -13 -5 1 -0 -1 -8 4
-2 -2 -2 -2 -0 0 -0 0 -1 -2 -0 -1 -3 0 -2 -1 -4 -2 -11 -14 -19 -1 8 -4 7 4 -1 8 -5 -4 2 7 14 9 -0 -1 3 -4 -9 -6 -4 -0 2 -0 -2 -5 4
-2 -3 -1 0 2 -0 -0 -2 -3 -3 -0 -0 -4 -1 0 -2 2 1 -0 -8 -1 2 -11 13 -5 -2 -3 10 -1 -2 5 4 5 -1 1 3 -3 -8 -0 2 3 3 2 -9 -8 -2 11
-2 -1 1 1 1 0 -1 -3 -2 -2 -2 0 -5 -5 -1 -7 1 2 4 4 5 3 6 -16 -1 3 2 1 -3 -12 0 -3 -0 3 -0 -1 -13 2 4 2 8 -2 0 -3 -1 -1 -1
-1 -0 1 -0 -1 -1 -1 -3 -2 -1 -3 -3 -4 -2 -2 -15 6 -2 4 -0 7 5 2 -11 0 1 -1 1 -3 -0 7 -10 5 -6 -0 -2 -11 2 3 -0 3 7 -4 2 1 4 -2
-2 0 -0 -1 -1 -1 -3 -1 -1 -3 -5 1 -3 -2 -4 6 -8 -0 -4 -2 4 4 -7 -1 2 -2 -1 2 3 3 6 14 -1 -3 3 -21 0 2 7 -24 3 -22 -0 -1 -0 1 1
-0 -1 -2 -1 -2 -0 -2 -1 -1 -6 -7 -2 -2 2 -0 -5 1 2 3 3 1 -1 -16 -2 2 1 -10 -3 -3 -1 -3 2 2 3 2 -9 -4 3 -4 -2 -0 -3 1 1 0 -1 5
-1 -2 -2 -1 -3 -3 -2 -2 -3 -4 -5 -4 -1 2 -2 -2 -3 1 -2 -2 -6 -4 -14 -0 1 -1 2 -2 -4 -2 2 2 -2 0 -1 -3 -5 -6 6 2 -2 0 -2 -1 -0 4 -10
-0 -2 -2 0 -1 -1 -2 -4 -4 -2 -3 -3 -2 -4 -5 -1 2 -4 -2 -7 -0 2 3 -4 1 -3 3 1 -5 -4 -3 -5 -2 -5 1 3 -16 1 -5 -8 -15 -5 -8 -7 -6 -3 -10
1 -1 -1 -2 -1 -1 -1 -5 -1 -3 -2 -9 -2 -7 -5 1 -4 0 -3 -4 4 3 8 3 -10 -3 -3 -10 5 -2 1 2 4 1 3 3 -4 -9 4 0 3 -7 1 -23 2 -2 0
1 -2 -2 -3 -2 -2 -4 -4 -1 -3 -4 -3 -7 -9 -5 -5 -0 -6 -7 2 -0 3 0 -3 0 2 2 -2 -0 -2 0 -2 -1 0 0 -5 -2 -2 -7 -6 -8 10 -2 2 3 2 0
-1 -2 -3 0 -1 -3 -0 -2 -4 -2 -7 -6 -7 -8 -7 2 -5 -8 -2 0 -0 -2 7 6 2 -1 2 1 1 -1 -5 -15 0 -5 1 2 6 -20 2 0 0 -7 -3 0 3 1 -2
-2 -1 -0 -2 -3 -1 0 1 -1 -9 -9 -4 -8 -5 -4 -5 -19 1 -0 3 2 -2 -4 -2 2 2 2 0 1 1 -0 -1 1 1 0 -0 2 1 -2 -16 3 1 3 4 6 -1 -1
-0 -1 -1 -0 -1 0 0 -2 -3 -1 -1 -8 -2 -4 -1 -3 -3 -1 -4 -2 1 -3 -1 -2 -0 3 -1 2 3 1 -0 -3 0 -0 0 -5 -3 -3 -14 -10 -3 -1 -2 1 -0 1 -0
-1 0 0 -1 1 1 -3 -5 -0 -3 -6 -1 -1 -6 -5 3 2 -0 1 -2 -3 -3 -2 -0 1 2 -2 -3 -2 -3 -2 -5 -2 1 -0 2 -0 -0 3 -5 3 -1 -1 -1 2 -0 1
2 0 -2 -2 -2 -1 -4 1 -2 -6 -3 -1 -1 1 2 -3 -5 -0 2 1 -1 -3 -0 1 -5 2 8 1 -2 1 -2 -7 -7 -5 0 -4 -1 1 -3 -0 2 2 1 0 -2 4 1
-1 -4 -3 -1 -1 -4 -2 -3 -6 1 1 -1 -0 -2 -1 -3 0 1 -3 -3 2 -5 8 -5 2 -2 2 4 5 -2 7 -0 -1 -6 1 -1 -6 1 -5 -2 2 0 -1 -0 -0 -2 -2
-2 -2 0 0 -1 1 1 -4 -1 0 -2 -1 -1 -1 4 -4 -0 -3 -3 0 -3 3 -9 4 7 5 -0 -3 2 -3 1 -2 -3 5 -1 3 -0 1 -7 1 -1 -11 6 2 3 -0 3
-3 1 -1 -3 -1 1 -3 0 -4 -2 3 2 2 4 4 -5 -0 -2 1 4 0 -1 4 -5 5 -1 -10 2 -6 -1 7 3 2 -4 4 0 1 1 -2 2 1 10 1 -1 -4 5 -1
-1 -1 -1 2 -0 -4 -1 -5 -1 1 1 3 5 4 1 -1 -0 -2 1 1 -1 -5 1 6 -4 4 8 1 -4 -6 -7 -8 -1 -0 -1 1 0 -1 1 0 8 0 -0 -0 3 6 4
1 -1 1 -3 -1 -1 -4 -0 2 -0 0 -1 -5 9 10 5 -8 2 2 1 0 -0 -3 -3 -6 -2 -0 1 -0 -1 -2 -2 -4 -7 -1 -3 -1 -2 -2 -2 -1 3 -3 1 2 -0 3
-2 0 -2 -0 -2 1 -2 -3 -1 -2 2 2 -6 6 15 5 -5 -1 0 2 2 0 1 -0 -5 -9 1 -0 0 0 -2 -1 -2 -0 -2 -3 -4 -0 -1 0 -0 0 -1 5 -4 -1 2
-1 -0 -2 2 4 -0 -2 -3 0 -2 2 -2 -2 8 18 -1 8 16 4 0 -5 -2 1 -5 -10 -7 -4 -6 -1 -1 -0 1 -4 3 3 -0 2 0 -3 -2 -1 2 -7 -11 4 1 4
2 0 0 1 1 -2 -1 3 4 4 -2 0 -1 0 4 3 6 6 4 0 1 6 3 -1 -1 3 0 0 -3 -1 -2 -3 2 1 -3 -4 4 3 1 1 1 5 4 6 1 3 2
Height
1537 1535 1532 1528 1525 1522 1519 1515 1512 1508 1505 1501 1497 1493 1488 1483 1477 1473 1468 1464 1460 1455 1452 1449 1448 1448 1448 1446 1429 1432 1430 1431 1433 1435 1436 1439 1443 1446 1447 1444 1446 1443 1433 1434 1433 1434 1432
1537 1534 1532 1528 1525 1521 1518 1514 1510 1506 1502 1498 1494 1490 1485 1480 1474 1468 1464 1460 1454 1450 1447 1443 1442 1442 1444 1440 1424 1424 1427 1429 1431 1432 1434 1436 1437 1439 1440 1439 1440 1432 1432 1431 1430 1426 1427
1537 1534 1531 1527 1524 1521 1517 1513 1510 1506 1501 1497 1493 1488 1483 1478 1472 1466 1460 1454 1449 1444 1439 1437 1435 1436 1436 1418 1423 1423 1423 1426 1427 1428 1430 1433 1436 1437 1436 1438 1433 1430 1430 1426 1423 1422 1421
1536 1533 1530 1527 1523 1520 1516 1512 1508 1504 1499 1495 1490 1485 1480 1475 1469 1463 1457 1452 1445 1440 1435 1433 1431 1433 1425 1416 1418 1418 1419 1421 1424 1426 1429 1432 1434 1433 1433 1433 1429 1431 1429 1429 1415 1416 1415
1535 1532 1529 1526 1522 1518 1514 1510 1506 1501 1497 1491 1486 1481 1476 1471 1464 1458 1452 1447 1441 1436 1433 1432 1431 1429 1419 1414 1414 1415 1417 1419 1422 1424 1426 1428 1429 1428 1429 1433 1438 1432 1427 1426 1421 1411 1413
1534 1532 1529 1524 1520 1516 1513 1509 1504 1499 1494 1489 1484 1478 1473 1467 1461 1453 1446 1442 1437 1433 1430 1430 1430 1432 1417 1413 1411 1412 1415 1418 1421 1423 1426 1426 1425 1423 1425 1434 1423 1424 1428 1421 1418 1408 1407
1534 1531 1527 1522 1519 1515 1511 1507 1502 1498 1493 1487 1482 1476 1469 1465 1458 1451 1443 1437 1438 1435 1431 1428 1421 1415 1412 1412 1412 1412 1413 1416 1418 1420 1422 1420 1424 1412 1410 1406 1406 1413 1414 1411 1404 1400 1403
1533 1529 1525 1521 1517 1513 1509 1505 1500 1496 1491 1486 1480 1475 1468 1462 1455 1452 1445 1442 1447 1446 1426 1413 1410 1411 1405 1410 1411 1409 1412 1416 1415 1417 1418 1420 1405 1405 1406 1408 1409 1408 1410 1401 1398 1399 1400
1531 1528 1524 1520 1516 1512 1507 1503 1498 1494 1489 1484 1478 1473 1466 1459 1454 1452 1449 1449 1448 1445 1437 1410 1408 1407 1405 1404 1405 1406 1409 1411 1412 1413 1412 1410 1398 1395 1403 1402 1405 1400 1400 1395 1397 1394 1390
1529 1526 1522 1518 1514 1511 1506 1502 1497 1492 1487 1481 1476 1471 1465 1457 1455 1450 1449 1447 1446 1443 1441 1411 1407 1408 1407 1404 1404 1400 1402 1404 1405 1405 1408 1403 1395 1392 1397 1393 1397 1393 1386 1390 1392 1399 1401
1528 1524 1520 1517 1512 1509 1504 1501 1496 1491 1485 1480 1475 1470 1464 1459 1456 1453 1451 1447 1445 1445 1446 1408 1409 1410 1410 1410 1406 1401 1401 1403 1398 1397 1398 1388 1383 1388 1384 1374 1384 1376 1382 1385 1387 1393 1396
1526 1523 1519 1515 1512 1507 1503 1499 1494 1490 1484 1478 1473 1467 1461 1459 1456 1455 1448 1444 1444 1446 1448 1413 1415 1418 1416 1411 1406 1403 1402 1402 1400 1398 1394 1383 1382 1384 1378 1375 1375 1373 1378 1382 1384 1393 1397
1524 1521 1517 1514 1510 1506 1502 1498 1493 1489 1483 1477 1470 1464 1460 1459 1457 1453 1447 1445 1449 1448 1422 1432 1432 1429 1422 1415 1408 1410 1407 1402 1403 1405 1398 1384 1378 1375 1379 1380 1377 1376 1387 1402 1403 1398 1372
1523 1519 1516 1513 1510 1506 1502 1498 1494 1489 1483 1477 1470 1464 1462 1461 1459 1453 1447 1447 1446 1443 1448 1442 1440 1428 1422 1429 1426 1421 1418 1418 1414 1416 1408 1396 1383 1373 1368 1369 1368 1372 1368 1378 1368 1371 1366
1522 1518 1515 1512 1509 1506 1502 1498 1494 1488 1483 1476 1471 1467 1464 1462 1458 1454 1450 1456 1459 1458 1454 1446 1437 1435 1437 1431 1434 1429 1425 1419 1423 1425 1425 1404 1387 1379 1370 1364 1366 1368 1369 1354 1368 1359 1373
1520 1517 1515 1512 1508 1505 1502 1498 1493 1488 1483 1477 1471 1469 1466 1463 1458 1454 1454 1455 1459 1458 1455 1449 1450 1444 1446 1441 1439 1436 1427 1416 1421 1422 1421 1413 1401 1381 1369 1369 1366 1358 1359 1365 1361 1367 1361
1519 1516 1513 1511 1508 1505 1501 1497 1492 1488 1483 1477 1472 1471 1469 1464 1461 1459 1469 1465 1460 1458 1456 1454 1450 1448 1444 1443 1440 1435 1429 1420 1420 1414 1414 1411 1406 1397 1377 1374 1374 1370 1369 1367 1365 1358 1349
1518 1515 1513 1510 1507 1504 1501 1497 1492 1489 1483 1478 1476 1475 1471 1466 1466 1466 1470 1467 1465 1459 1454 1451 1448 1444 1444 1440 1438 1435 1429 1422 1417 1416 1415 1412 1407 1396 1393 1376 1373 1374 1385 1382 1362 1361 1352
1518 1515 1513 1511 1507 1504 1501 1497 1493 1489 1484 1480 1480 1477 1472 1470 1476 1475 1470 1467 1463 1459 1456 1451 1449 1444 1442 1440 1438 1429 1425 1416 1416 1416 1416 1411 1406 1410 1392 1377 1379 1389 1386 1382 1384 1379 1364
1518 1515 1513 1511 1508 1504 1500 1497 1493 1489 1486 1483 1481 1481 1474 1472 1474 1476 1474 1467 1464 1459 1454 1453 1446 1442 1443 1436 1430 1430 1424 1416 1414 1413 1410 1409 1417 1410 1408 1398 1393 1390 1385 1383 1382 1380 1383
1518 1516 1513 1511 1508 1504 1501 1497 1494 1491 1488 1486 1485 1485 1484 1483 1475 1475 1474 1468 1465 1460 1454 1452 1446 1445 1444 1438 1431 1424 1421 1415 1406 1404 1405 1408 1417 1405 1397 1395 1394 1392 1404 1403 1392 1416 1403
1518 1515 1513 1510 1507 1504 1501 1496 1494 1491 1488 1487 1487 1487 1485 1481 1477 1475 1470 1471 1465 1461 1461 1452 1449 1441 1439 1438 1435 1425 1423 1415 1414 1402 1404 1408 1407 1402 1397 1388 1385 1404 1415 1413 1424 1432 1421
1517 1515 1512 1509 1506 1503 1499 1496 1494 1491 1489 1487 1487 1485 1482 1475 1473 1475 1471 1466 1463 1461 1452 1451 1445 1441 1435 1429 1427 1422 1415 1406 1406 1405 1402 1402 1402 1407 1395 1380 1387 1426 1443 1436 1448 1456 1448
1516 1513 1511 1508 1504 1501 1498 1495 1493 1491 1489 1486 1485 1483 1481 1476 1472 1470 1464 1463 1460 1459 1454 1446 1441 1439 1432 1425 1417 1409 1402 1398 1400 1399 1396 1394 1394 1392 1403 1386 1394 1452 1457 1450 1455 1460 1459
1515 1512 1509 1506 1502 1499 1495 1492 1489 1487 1486 1483 1482 1481 1477 1471 1466 1463 1460 1458 1454 1452 1450 1445 1439 1436 1429 1423 1421 1419 1406 1401 1398 1398 1397 1392 1391 1391 1384 1407 1440 1448 1462 1466 1463 1470 1469
1514 1511 1508 1505 1501 1497 1493 1490 1487 1485 1483 1479 1478 1477 1473 1468 1460 1460 1458 1455 1453 1450 1445 1439 1437 1431 1427 1425 1425 1432 1421 1406 1404 1400 1400 1399 1403 1397 1404 1400 1424 1467 1468 1468 1468 1479 1475
1514 1510 1506 1503 1500 1497 1493 1489 1486 1483 1479 1475 1472 1472 1470 1464 1458 1457 1455 1452 1452 1450 1448 1442 1438 1431 1430 1430 1432 1430 1421 1414 1418 1431 1435 1433 1442 1439 1427 1451 1473 1474 1467 1461 1464 1488 1480
1512 1509 1505 1502 1498 1495 1492 1488 1485 1480 1477 1472 1468 1467 1466 1460 1455 1453 1453 1455 1454 1455 1453 1448 1442 1438 1436 1437 1434 1436 1434 1432 1444 1462 1462 1475 1478 1471 1464 1455 1461 1476 1468 1474 1486 1481 1480
1510 1506 1503 1499 1495 1491 1487 1483 1481 1478 1473 1468 1465 1463 1461 1460 1460 1458 1458 1460 1460 1459 1458 1454 1453 1449 1446 1442 1443 1442 1445 1446 1447 1458 1470 1478 1484 1480 1486 1490 1491 1488 1486 1486 1484 1482 1480